Weather in Alexandrovka

Ukraine / Mykolaiv District     47°33′36″N   32°58′26″E
temp.,
°C
wind,
m/s
gust,
m/s
humid.,
%
clouds,
%
prec.,
mm/h
press.,
hPa
HPBL,
m
18 may, tue
tue1800:00+13ssw489113 0.2 1006173
03:00+12ssw3795100 0.3 1005160
06:00+13s379364 0.0 1005200
09:00+18s576910 0.0 1005655
12:00+20ssw91063100 2.4 10041387
15:00+16s7118221 3.1 1004867
18:00+17ssw81074100 1.1 10031025
21:00+13s411905 1.5 1003255
19 may, wed
wed1900:00+12s510955 0.0 1003233
03:00+10s48955 0.0 1003169
06:00+10s49955 0.0 1003248
09:00+15s5775100 0.1 1003950
12:00+13s5892100 0.5 1003579
15:00+17w687164 0.9 10041126
18:00+16w8116946 0.2 10051289
21:00+13wsw81378100 0.3 1007957
20 may, thu
thu2000:00+13wsw7128047 0.0 1009625
03:00+9wsw512880 0.0 1010318
06:00+9w49885 0.0 1010227
09:00+16wsw456491 0.0 1011517
12:00+20ssw4553100 0.0 10111400
15:00+17s2368100 0.1 1011504
18:00+19n115895 0.0 1011706
21:00+15ne477681 0.0 1011187
21 may, fri
fri2100:00+13nne51084100 0.0 1011251
03:00+13ne81487100 0.0 1011382
06:00+13ene81484100 0.0 1010455
09:00+15ene81074100 0.0 1011640
12:00+20e6762100 0.0 10101186
15:00+23e4553100 0.0 10101553
18:00+23ene3355100 0.0 10091199
21:00+18nne61179100 0.0 1010260
22 may, sat
sat2200:00+15nne6128862 0.0 1010282
03:00+14n4993100 0.0 1011218
06:00+14n61289100 0.0 1011326
09:00+20nne69715 0.0 1010505
12:00+24nne67575 0.0 10101146
15:00+26nne775117 0.0 10101729
18:00+25nne66564 0.0 10101526
21:00+20nnw510800 0.0 1011215